Location: Beccas
(43.4309°N, 0.1528°E)
Time: 15:43:00
(UTC+00:00)

Transit 2A Rocket - Pass Details

Date: 29 May 2022
Orbit: 594 x 907 km, 66.7° (Epoch: 03 July)

Event Time Altitude Azimuth Distance (km) Brightness Sun altitude
Rises 20:01:29 0° 338° (NNW) 2,944 9.2 -5.4°
Reaches altitude 10° 20:04:19 10° 355° (N) 1,992 7.8 -5.8°
Maximum altitude 20:07:41 21° 44° (NE) 1,386 6.3 -6.3°
Drops below altitude 10° 20:10:57 10° 94° (E) 1,930 6.6 -6.8°
Enters shadow 20:12:01 - 102° (ESE) 2,265 6.9 -6.9°
